Location: Blairvadach
(56.2780°N, 6.9720°W)
Time: 09:09:52
(UTC+01:00)

Envisat - Pass Details

Date: 23 February 2019
Orbit: 764 x 766 km, 98.1° (Epoch: 21 October)

Event Time Altitude Azimuth Distance (km) Brightness Sun altitude
Rises 18:41:38 0° 160° (SSE) 3,223 6.1 -8.1°
Reaches altitude 10° 18:43:55 10° 160° (SSE) 2,301 5.3 -8.4°
Maximum altitude 18:49:00 86° 74° (ENE) 776 3.0 -9.2°
Drops below altitude 10° 18:54:08 10° 345° (NNW) 2,316 5.7 -9.9°
Sets 18:56:27 0° 345° (NNW) 3,247 6.4 -10.2°
